TimeEDT,TemperatureF,Dew PointF,Humidity,Sea Level PressureIn,VisibilityMPH,Wind Direction,Wind SpeedMPH,Gust SpeedMPH,PrecipitationIn,Events,Conditions,WindDirDegrees,DateUTC
12:53 AM,55.0,51.1,86,30.23,10.0,Variable,4.6,-,N/A,,Clear,0,2013-08-24 04:53:00
1:53 AM,54.0,48.9,83,30.23,10.0,West,3.5,-,N/A,,Clear,260,2013-08-24 05:53:00
2:53 AM,53.1,48.0,83,30.23,10.0,WNW,5.8,-,N/A,,Clear,290,2013-08-24 06:53:00
3:53 AM,52.0,48.9,89,30.25,10.0,West,6.9,-,N/A,,Clear,280,2013-08-24 07:53:00
4:53 AM,48.9,46.9,93,30.27,10.0,SSW,6.9,-,N/A,,Clear,200,2013-08-24 08:53:00
5:53 AM,50.0,46.0,86,30.27,10.0,Variable,4.6,-,N/A,,Clear,0,2013-08-24 09:53:00
6:53 AM,54.0,48.9,83,30.30,10.0,Variable,4.6,-,N/A,,Clear,0,2013-08-24 10:53:00
7:53 AM,60.1,53.1,78,30.32,10.0,South,8.1,-,N/A,,Clear,170,2013-08-24 11:53:00
8:53 AM,64.9,54.0,68,30.34,10.0,South,10.4,-,N/A,,Clear,170,2013-08-24 12:53:00
9:53 AM,68.0,54.0,61,30.35,10.0,SE,4.6,-,N/A,,Clear,140,2013-08-24 13:53:00
10:53 AM,71.1,54.0,55,30.35,10.0,Variable,5.8,-,N/A,,Clear,0,2013-08-24 14:53:00
11:53 AM,73.0,51.1,46,30.34,10.0,ESE,8.1,-,N/A,,Clear,120,2013-08-24 15:53:00
12:53 PM,75.0,50.0,41,30.34,10.0,Variable,5.8,-,N/A,,Clear,0,2013-08-24 16:53:00
1:53 PM,73.9,54.0,50,30.32,10.0,NNW,8.1,-,N/A,,Clear,340,2013-08-24 17:53:00
2:53 PM,73.9,53.1,48,30.32,10.0,NNW,8.1,-,N/A,,Clear,340,2013-08-24 18:53:00
3:53 PM,75.9,51.1,42,30.31,10.0,North,6.9,-,N/A,,Clear,350,2013-08-24 19:53:00
4:53 PM,75.9,48.9,38,30.30,10.0,North,8.1,-,N/A,,Clear,360,2013-08-24 20:53:00
5:53 PM,75.0,50.0,41,30.30,10.0,NNE,8.1,-,N/A,,Clear,30,2013-08-24 21:53:00
6:53 PM,73.9,52.0,46,30.31,10.0,Variable,4.6,-,N/A,,Clear,0,2013-08-24 22:53:00
7:53 PM,69.1,55.0,61,30.31,10.0,Calm,Calm,-,N/A,,Clear,0,2013-08-24 23:53:00
8:53 PM,62.1,55.0,78,30.32,10.0,SSW,5.8,-,N/A,,Clear,200,2013-08-25 00:53:00
9:53 PM,59.0,54.0,83,30.33,10.0,Variable,4.6,-,N/A,,Clear,0,2013-08-25 01:53:00
10:53 PM,57.0,52.0,83,30.32,10.0,Variable,4.6,-,N/A,,Clear,0,2013-08-25 02:53:00
11:53 PM,55.0,52.0,89,30.32,10.0,SSW,6.9,-,N/A,,Clear,210,2013-08-25 03:53:00